Tracking 28790 objects as of 19-Apr-2024
HD Live streaming from Space Station
objects crossing your sky now

COSMOS 1375

Track COSMOS 1375 now!
10-day predictions
COSMOS 1375 is classified as:


NORAD ID: 13259
Int'l Code: 1982-055A
Perigee: 937.6 km
Apogee: 976.1 km
Inclination: 65.8 °
Period: 104.0 minutes
Semi major axis: 7327 km
RCS: 0.955 m2 (medium)
Launch date: June 6, 1982
Source: Commonwealth of Independent States (former USSR) (CIS)
Launch site: PLESETSK MISSILE AND SPACE COMPLEX (PKMTR)
Your satellite tracking list
Your tracking list is empty




NASA's NSSDC Master Catalog

Two Line Element Set (TLE):
1 13259U 82055A   24109.70556219  .00000909  00000-0  88867-3 0  9999
2 13259  65.8319 226.8618 0026268 225.3243 134.5684 13.83999991104784
Source of the keplerian elements: AFSPC